Regional Weather Roundup
Issued by NWS

Home | Current Version | Previous Version | Text Only | Print | Product List | Glossary Off
Versions: 1 2 3 4 5 6 7 8 9 10 11 12 13 14 15 16 17 18 19 20 21 22 23 24 25 26 27 28 29 30 31 32 33 34 35 36 37 38 39 40 41 42 43 44 45 46 47 48 49 50

000
ASUS43 KMPX 230001
RWRMN
WEATHER ROUNDUP FOR MINNESOTA
NATIONAL WEATHER SERVICE TWIN CITIES/CHANHASSEN MN
700 PM CDT WED MAR 22 2017


NOTE: "FAIR" INDICATES FEW OR NO CLOUDS BELOW 12,000 FEET WITH NO
SIGNIFICANT WEATHER AND/OR OBSTRUCTIONS TO VISIBILITY. N/A MEANS
CURRENT SKY AND/OR WEATHER CONDITIONS ARE NOT AVAILABLE.

MNZ060>063-068>070-230100-
   Twin Cities Metro

CITY           SKY/WX    TMP DP  RH WIND       PRES   REMARKS
TWIN CITIES    CLOUDY    38  12  34 S10       30.36F
6HR MIN TEMP:  34; 6HR MAX TEMP:  40;

ST PAUL        PTCLDY    38  12  34 S13       30.37F
CRYSTAL        CLOUDY    37  11  34 S13G23    30.34F
BLAINE         MOCLDY    39  12  33 SE14      30.35F
LAKEVILLE      CLOUDY    36  18  48 SE8       30.35F
EDEN PRAIRIE   CLOUDY    38  14  37 S15       30.34F
6HR MIN TEMP:  36; 6HR MAX TEMP:  42;

SOUTH ST PAUL  CLOUDY    38  12  34 S8        30.36F
LAKE ELMO      CLOUDY    37  14  38 SE9       30.37F
$$
MNZ001>005-007-008-013>017-022>024-027-028-230100-
   Northwest Minnesota

CITY           SKY/WX    TMP DP  RH WIND       PRES   REMARKS
BEMIDJI        CLOUDY    33  10  37 S16G24    30.21F WCI  23
HALLOCK        CLOUDY    30  25  80 S20       30.14F WCI  18
ROSEAU         CLOUDY    34  16  47 S14       30.19S WCI  24
WARROAD        CLOUDY    34  12  40 SE13      30.21F WCI  25
THIEF RVR FALL   N/A    N/A N/A N/A MISG        N/A
CROOKSTON      CLOUDY    30  21  69 S20       30.17S WCI  18
FOSSTON        CLOUDY    30  16  55 SE17      30.18F WCI  18
DETROIT LAKES  CLOUDY    32  18  55 SE20G25   30.17F WCI  20
MOORHEAD       CLOUDY    32  21  64 SE25      30.16F WCI  19
PARK RAPIDS    CLOUDY    33   9  36 S23G29    30.22F WCI  21
MAHNOMEN       CLOUDY    32  14  47 S17G23    30.16F WCI  21
$$
MNZ006-009>011-018-025>026-230100-
   North Central Minnesota

CITY           SKY/WX    TMP DP  RH WIND       PRES   REMARKS
BAUDETTE       CLOUDY    34  10  37 S10       30.21F WCI  26
FLAG ISLAND    CLOUDY    28  19  69 SE12      30.21F WCI  18
INTL FALLS     CLOUDY    34   7  32 S9        30.25F WCI  27
6HR MIN TEMP:  27; 6HR MAX TEMP:  35;

WASKISH        CLOUDY    34   9  35 SE8       30.23F WCI  27
BIG FORK       CLOUDY    34   7  32 S10G18    30.26F WCI  26
LONGVILLE      CLOUDY    34   9  35 SE9       30.25F WCI  26
GRAND RAPIDS   CLOUDY    34   7  32 S16       30.28F WCI  24
CRANE LAKE     PTCLDY    32   7  34 CALM      30.32F
ORR            CLOUDY    34   3  27 CALM      30.25F
COOK           CLOUDY    34   7  32 SE10      30.29F WCI  26
WALKER         CLOUDY    32   8  36 S15G22    30.24S WCI  22
$$
MNZ012-019>021-037-230100-
   Northeast Minnesota

CITY           SKY/WX    TMP DP  RH WIND       PRES   REMARKS
DULUTH         PTCLDY    26  17  68 SE13      30.33F WCI  15
6HR MIN TEMP:  26; 6HR MAX TEMP:  33;

ELY            CLEAR     30   5  34 SE5       30.32F WCI  25
HIBBING        PTCLDY    32   5  32 S8        30.29F WCI  25
EVELETH        CLEAR     32  -1  24 S9        30.31F WCI  25
DULUTH HARBOR  CLEAR     30  23  74 NE14      30.39F WCI  20
TWO HARBORS    CLEAR     30  19  64 E8        30.35F WCI  23
SILVER BAY     CLEAR     27  18  69 E8        30.37F WCI  18
GRAND MARAIS     N/A     25  13  60 E3        30.44F
G MARAIS ARPRT CLEAR     21   3  45 CALM      30.36F
$$
MNZ029>031-032-039>041-046>048-054>057-064-230100-
   West Central Minnesota

CITY           SKY/WX    TMP DP  RH WIND       PRES   REMARKS
FERGUS FALLS   CLOUDY    32  21  64 SE20G32   30.22F WCI  20
WHEATON        CLOUDY    34  25  69 SE25      30.17F WCI  21
MORRIS         CLOUDY    34  25  69 SE22      30.19F WCI  22
ALEXANDRIA     CLOUDY    32  20  61 SE21G28   30.23F WCI  20
ELBOW LAKE     CLOUDY    32  23  68 E21G28    30.19F WCI  20
WADENA         CLOUDY    30  18  59 SE15G24   30.23F WCI  19
GLENWOOD       CLOUDY    34  21  60 SE14      30.24F WCI  24
APPLETON       CLOUDY    36  25  64 SE15G24   30.20F
BENSON         CLOUDY    37  21  52 S18G24    30.24F
ORTONVILLE     CLOUDY    34  27  75 SE24G30   30.16F WCI  21
MADISON        CLOUDY    36  28  75 SE20G25   30.18F
WILLMAR        CLOUDY    36  25  64 SE15G22   30.27F
$$
MNZ033>034-036-042>043-049>051-058-059-230100-
   Central Minnesota

CITY           SKY/WX    TMP DP  RH WIND       PRES   REMARKS
ST CLOUD       CLOUDY    35  16  45 S12       30.30F WCI  27
6HR MIN TEMP:  33; 6HR MAX TEMP:  36;

SAUK CENTRE    CLOUDY    32  19  59 SE15G23   30.27F WCI  22
PAYNESVILLE      N/A     34  20  58 SE15      30.28F WCI  24
AITKIN         PTCLDY    37   1  22 S13G18    30.28F
PINE RIVER     CLOUDY    34  12  40 S10G16    30.29F WCI  26
BRAINERD       CLOUDY    34   7  32 S12       30.29F WCI  25
STAPLES        CLOUDY    32  10  40 S12G18    30.25F WCI  23
LONG PRAIRIE   CLOUDY    32  19  59 E15G21    30.28F WCI  22
LITTLE FALLS   CLOUDY    34  10  37 SE10G16   30.30F WCI  26
LITCHFIELD     CLOUDY    36  21  55 SE10      30.30F
BUFFALO        CLOUDY    36  16  44 SE9       30.34F
MAPLE LAKE     CLOUDY    37  21  53 SE10      30.32F
HUTCHINSON     CLOUDY    36  24  61 SE13G18   30.31F
$$
MNZ037-044-045-052-053-230100-
   East Central Minnesota

CITY           SKY/WX    TMP DP  RH WIND       PRES   REMARKS
PRINCETON      CLOUDY    37  10  32 SE10      30.33F
MORA           CLOUDY    34   9  35 S9        30.35F WCI  26
CAMBRIDGE      CLOUDY    37  18  44 SE8       30.33S
RUSH CITY      CLOUDY    35   9  33 S9        30.35F WCI  28
MOOSE LAKE     CLOUDY    36   9  32 SE6       30.31F
HINCKLEY       FAIR      36  12  38 SE7       30.34F
CLOQUET        PTCLDY    30  14  51 E6        30.33S WCI  24
MCGREGOR       CLEAR     34   9  35 SE8       30.31F WCI  27
$$
MNZ071>073-080-081-089-090-097-098-230100-
   Southwest Minnesota

CITY           SKY/WX    TMP DP  RH WIND       PRES   REMARKS
MONTEVIDEO     CLOUDY    34  27  75 S21       30.23F WCI  22
GRANITE FALLS  CLOUDY    36  27  69 E16G23    30.24F
CANBY          CLOUDY    35  28  77 E20       30.19F WCI  24
MARSHALL       CLOUDY    34  25  69 SE20      30.21F WCI  23
REDWOOD FALLS  CLOUDY    35  24  64 SE18      30.25F WCI  24
OLIVIA         CLOUDY    34  25  69 SE14G21   30.25F WCI  24
PIPESTONE      CLOUDY    34  23  64 SE18G28   30.14F WCI  23
WINDOM         CLOUDY    36  25  64 SE17G23   30.24F
WORTHINGTON    CLOUDY    34  24  67 SE20      30.20F WCI  23
JACKSON        CLOUDY    34  27  75 SE14      30.26F WCI  24
TRACY          CLOUDY    35  27  74 SE17G24   30.21F WCI  24
SLAYTON        CLOUDY    32  27  81 SE18G24   30.19F WCI  20
$$
MNZ065>067-074>077-082>085-091>093-230100-
   South Central Minnesota

CITY           SKY/WX    TMP DP  RH WIND       PRES   REMARKS
MANKATO        CLOUDY    37  21  52 SE17      30.32F
NEW ULM        CLOUDY    36  23  60 SE15      30.29F
ST JAMES       CLOUDY    36  27  69 E13       30.29F
FAIRMONT       CLOUDY    35  25  66 SE15      30.28F WCI  25
GLENCOE        CLOUDY    37  26  63 SE9       30.31F
FARIBAULT      CLOUDY    37  19  48 SE12      30.34F
OWATONNA       CLOUDY    37  18  44 SE12G17   30.33F
WASECA         CLOUDY    36  23  60 SE8       30.34F
ALBERT LEA     CLOUDY    37  19  48 SE12      30.33F
$$
MNZ078>079-086>088-094>096-230100-
   Southeast Minnesota

CITY           SKY/WX    TMP DP  RH WIND       PRES   REMARKS
ROCHESTER      CLOUDY    35  17  47 SE13      30.36F WCI  26
6HR MIN TEMP:  33; 6HR MAX TEMP:  37;

RED WING       CLOUDY    39   9  28 SE9       30.37F
STANTON        CLOUDY    38  14  38 SE7       30.35F
DODGE CENTER   CLOUDY    36  19  51 SE13      30.34F
WINONA         CLOUDY    37  10  32 S7        30.41F
AUSTIN         CLOUDY    37  19  48 SE9       30.34F
PRESTON        CLOUDY    37  11  35 SE9       30.38F
$$
ABBREVIATIONS USED IN REMARKS
   TC - TEMPERATURES IN CELSIUS
  WCI - WIND CHILL INDEX
   HX - HEAT INDEX
  VSB - VISIBILITY
$$




USA.gov is the U.S. government's official web portal to all federal, state and local government web resources and services.